Torna al catalogo

STARLINK-5645

AttivoComunicazioniVLEO
NORAD 55429·PAYLOAD·🇺🇸 United States

Lanciato Jan 31, 2023 da Vandenberg Space Force Base

Loading…

Prossimi Passaggi (prossime 24 ore)

TLE

AggiornatoSource: CelesTrak SupGP

Epoca: Sep 15, 2026, 01:40 UTC

1 55429C 23014AQ  26258.06993056  .00684190  00000+0  55416-1 0  2583
2 55429  70.0003 327.0727 0003174 268.6645 205.4467 14.99300057    14

Traccia STARLINK-5645 in tempo reale con AllMySat

Download on the App Store